ISS (ZARYA) 1 25544U 98067A 26037.85745963 .00012189 00000+0 23308-3 0 9994 2 25544 51.6318 224.7731 0011112 72.2083 288.0117 15.48447561551553 CSS (TIANHE) 1 48274U 21035A 26038.11392178 .00023168 00000+0 28917-3 0 9996 2 48274 41.4674 34.0120 0004962 18.8845 341.2177 15.59307546272830 ISS (NAUKA) 1 49044U 21066A 26037.85745964 .00012189 00000+0 23308-3 0 9991 2 49044 51.6318 224.7731 0011112 72.2083 288.0117 15.48447561230446 FREGAT DEB 1 49271U 11037PF 26036.33500904 .00055371 00000+0 93522-1 0 9998 2 49271 51.6559 37.5500 0926622 345.1637 12.3633 12.37884067208680 CSS (WENTIAN) 1 53239U 22085A 26037.47343961 .00022506 00000+0 28124-3 0 9998 2 53239 41.4680 37.9008 0005396 13.3696 346.7284 15.59287012173842 CSS (MENGTIAN) 1 54216U 22143A 26037.47343961 .00022506 00000+0 28124-3 0 9999 2 54216 41.4680 37.9008 0005396 13.3696 346.7284 15.59287012158649 PROGRESS-MS 31 1 64751U 25146A 26037.85745964 .00012189 00000+0 23308-3 0 9996 2 64751 51.6318 224.7731 0011112 72.2083 288.0117 15.48447561 6753 TIANZHOU-9 1 64786U 25149A 26037.47343961 .00022506 00000+0 28124-3 0 9991 2 64786 41.4680 37.9008 0005396 13.3696 346.7284 15.59287012255303 DRAGON CRS-33 1 65304U 25186A 26037.85745964 .00012189 00000+0 23308-3 0 9995 2 65304 51.6318 224.7731 0011112 72.2083 288.0117 15.48447561 112 PROGRESS-MS 32 1 65586U 25204A 26037.85745964 .00012189 00000+0 23308-3 0 9998 2 65586 51.6318 224.7731 0011112 72.2083 288.0117 15.48447561 271 CYGNUS NG-23 1 65616U 25208A 26037.85745964 .00012189 00000+0 23308-3 0 9996 2 65616 51.6318 224.7731 0011112 72.2083 288.0117 15.48447561 220 1998-067XK 1 65731U 98067XK 26037.70294907 .00286625 00000+0 12464-2 0 9995 2 65731 51.6226 210.1936 0003519 254.1842 105.8773 15.83449040 21958 RSP-03 1 65732U 98067XL 26037.72735522 .00753541 26934-3 14853-2 0 9999 2 65732 51.6170 206.5302 0006538 284.0297 75.9985 15.99425235 22010 YOTSUBA-KULOVER 1 65941U 98067XN 26037.74055648 .00136055 00000+0 10772-2 0 9990 2 65941 51.6250 216.4844 0004077 240.0353 120.0240 15.70377871 18622 BOTAN 1 65942U 98067XP 26037.75814844 .00356023 00000+0 15519-2 0 9996 2 65942 51.6190 212.8086 0005878 265.4607 94.5725 15.83205172 18673 E-KAGAKU-1 1 65943U 98067XQ 26037.74122870 .00137746 00000+0 10947-2 0 9996 2 65943 51.6264 216.4987 0003395 256.2680 103.7939 15.70283698 18627 HRC MONOBLOCK CAMERA 1 66052U 98067XR 26037.76996596 .00053545 00000+0 67621-3 0 9990 2 66052 51.6277 221.1917 0000762 351.8886 8.2094 15.59019582 17563 HTV-X1 1 66174U 25241A 26037.85745964 .00012189 00000+0 23308-3 0 9993 2 66174 51.6318 224.7731 0011112 72.2083 288.0117 15.48447561 512 SZ-21 MODULE 1 66515U 25246C 26038.04255016 .00039980 00000+0 37769-3 0 9997 2 66515 41.4765 31.6776 0002983 280.6957 79.3548 15.66234853 13262 SHENZHOU-22 1 66645U 25272A 26037.47343961 .00022506 00000+0 28124-3 0 9994 2 66645 41.4680 37.9008 0005396 13.3696 346.7284 15.59287012267649 SOYUZ-MS 28 1 66664U 25275A 26037.85745963 .00012189 00000+0 23308-3 0 9993 2 66664 51.6318 224.7731 0011112 72.2083 288.0117 15.48447561551551 DUPLEX 1 66906U 98067XS 26037.99804763 .00041452 00000+0 63157-3 0 9991 2 66906 51.6286 222.7139 0001403 83.2921 276.8229 15.54066213 10354 1998-067XT 1 66907U 98067XT 26037.80199839 .00119560 00000+0 13710-2 0 9998 2 66907 51.6268 222.1534 0002071 208.5279 151.5601 15.61194344 10345 1998-067XU 1 66908U 98067XU 26037.80145675 .00116976 00000+0 13403-2 0 9995 2 66908 51.6265 222.1476 0001901 209.5042 150.5844 15.61225323 10348 SILVERSAT 1 66909U 98067XV 26037.71391803 .00138156 00000+0 14992-2 0 9990 2 66909 51.6272 222.3150 0002550 223.1841 136.8954 15.62543187 10338 1998-067XW 1 66910U 98067XW 26037.72755906 .00114383 00000+0 13119-2 0 9997 2 66910 51.6257 222.4006 0000958 240.3067 119.7831 15.61211268 10330 1998-067XX 1 66911U 98067XX 26037.74954576 .00154731 00000+0 15986-2 0 9999 2 66911 51.6250 221.7970 0002423 254.7739 105.2988 15.63735398 10330 1998-067XY 1 66912U 98067XY 26037.72255234 .00083010 00000+0 10639-2 0 9994 2 66912 51.6280 223.1240 0001319 158.7208 201.3840 15.58441538 10314